COSMOS 1275 DEB, 42188

Orbit data source: Space-Track

COSMOS 1275 DEB, 42188 is space debris in LEO originally from a launch on Thu, 04 Jun 1981 UTC launched from the Plesetsk Missile And Space Complex (PKMTR). Debris objects in space refer to the collection of defunct objects orbiting the Earth. Examples of debris include non-operational satellites, rocket bodies, and fragments generated from explosions, collisions, or faulty payload assembly.

Loading next visibility...
Identifier
42188, 1981-053TC
Orbit
LEO
Country
Flag of CISCIS
Related business
Manufacturer
Unknown
Mission
Spacecraft
Bus & Motor
Unknown
Mass
Unknown
Launch date (UTC)
1981-06-04 (44 years ago)
Launch vehicle
Unknown
Launch site
Plesetsk Missile And Space Complex (PKMTR)
Object type
Payload
Rocket body
Debris
Shape & HBR
Unknown shape, 0.1 m
Radar Cross Section
Small (<0.1 m²)

Expand to show TLE details & history
Last TLE update: 2 days ago

TLE from 2 days ago
0 COSMOS 1275 DEB
1 42188U 81053TC  25287.81985634  .00002846  00000-0  14484-2 0  9991
2 42188  82.8503 323.7999 0053769 125.2229 235.4000 14.14773665609852
Epoch: 2025-10-14T19:40Z
TLE epoch observation values (Epoch: 2025-10-14T19:40:35.587Z)
Latitude
-0.00003°
Longitude
5.04881°
Altitude
868.229 km
Speed
7.407 km/s
True Right ascension
21h 35m 11s
True Declination
0° 00' 00"
Sunlit
Object was in full shadow at epoch
Visualization orbit readout
Latitude
Unknown
Longitude
Unknown
Altitude
Unknown
Speed
Unknown
Apparent Right ascension
Unknown
Apparent Declination
Unknown
Sunlit
N/A
Visualization observer readout
Local Sidereal Time
13:09:25
Azimuth
Unknown
Elevation
Unknown
Doppler factor
Unknown
Orbital elements
Apogee altitude
878.992 km
Perigee altitude
801.368 km
Semi-major axis
7,218.317 km
Eccentricity
0.00538
Inclination
82.8503°
RAAN
323.7999°
Arg. of periapsis
125.2229°
True anomaly
234.89476°
Mean anomaly
235.4°
Eccentric anomaly
235.14719°
Mean motion
3.53907 °/min
Orbital period
101.72 mins
BSTAR
0.0014484
Loading maneuver chart data...
Computing Atmospheric mass density...

Documentation

Showing up to 5 results
|